Showing default

FLYLAB 2, 68503

Orbit data source: Space-Track

FLYLAB 2, 68503 is a payload satellite owned by ONERA (FR) in SSO that was launched on Mon, 30 Mar 2026 UTC via an FALCON 9 launch vehicle from the Air Force Western Test Range (AFWTR). Payload-class satellites include a variety of spacecraft equipped with specific instruments for various scientific and technological missions. These include communications satellites like Starlink; space stations such as the ISS; scientific satellites like the Hubble; Earth observation satellites from companies like Planet Labs, Umbra, and HawkEye 360; GPS; miniature CubeSats for education and research; and military/defense satellites.

Loading next visibility...
Identifier
68503, 2026-067CR
Orbit
SSO
Country
Flag of FRFR
Related business
Manufacturer
NanoAvionics
Mission
Operational Civil Technology
Bus & Motor
CUBESAT 6U, Unknown motor
Mass
10 kg wet, ~10 kg dry
Launch date (UTC)
2026-03-30 (5 months ago)
Launch vehicle
FALCON 9
Launch site
Air Force Western Test Range (AFWTR)
Object type
Payload
Rocket body
Debris
Shape & HBR
Box + 4 Pan, 1.0 m
Radar Cross Section
0.139 m², Medium (>0.1 m² and < 1m²)

Expand to show TLE details & history
Last TLE update: 11 hours ago

TLE from 11 hours ago
0 FLYLAB 2
1 68503U 26067CR  26255.25002315  .00081184  00000-0  75490-2 0  9990
2 68503  97.7673 211.9126 0007444 141.8122 110.1552 14.93917451  3106
Epoch: 2026-09-12T06:00Z
TLE epoch observation values (Epoch: 2026-09-12T06:00:02.000Z)
Latitude
-70.63593°
Longitude
-72.06343°
Altitude
613.837 km
Speed
7.55 km/s
True Right ascension
00h 36m 49s
True Declination
-70° 31' 33"
Sunlit
Object was in daylight at epoch
Visualization orbit readout
Latitude
Unknown
Longitude
Unknown
Altitude
Unknown
Speed
Unknown
Apparent Right ascension
Unknown
Apparent Declination
Unknown
Sunlit
N/A
Visualization observer readout
Local Sidereal Time
09:04:17
Azimuth
Unknown
Elevation
Unknown
Doppler factor
Unknown
Orbital elements
Apogee altitude
587.933 km
Perigee altitude
577.57 km
Semi-major axis
6,960.888 km
Eccentricity
0.00074
Inclination
97.7673°
RAAN
211.9126°
Arg. of periapsis
141.8122°
True anomaly
110.23525°
Mean anomaly
110.1552°
Eccentric anomaly
110.19523°
Mean motion
3.7372 °/min
Orbital period
96.33 mins
BSTAR
0.007549
Loading maneuver chart data...
Computing Atmospheric mass density...
Loading historical data...
Loading historical data...
Loading historical data...
Loading historical data...
Loading historical data...
Loading historical data...
Loading historical data...

Documentation

Showing up to 5 results
|